| time (UTC) | temp F | wind direction | speed knots | gust knots | rain 1hr in | rain 24hr in | rain mn in | humidity % | barometer mb |
| 20260503010002 | 73 | 178 | 0.0 | 1.7 | 0.00 | 0.00 | 0.00 | 45 | 1018.7 |
| 20260503005501 | 74 | 178 | 0.0 | 1.7 | 0.00 | 0.00 | 0.00 | 44 | 1018.7 |
| 20260503005002 | 75 | 173 | 0.0 | 1.7 | 0.00 | 0.00 | 0.00 | 43 | 1018.6 |
| 20260503004502 | 77 | 192 | 0.0 | 1.7 | 0.00 | 0.00 | 0.00 | 42 | 1018.6 |
| 20260503003502 | 80 | 144 | 0.0 | 0.9 | 0.00 | 0.00 | 0.00 | 39 | 1018.6 |
| 20260503003001 | 81 | 124 | 0.0 | 0.9 | 0.00 | 0.00 | 0.00 | 39 | 1018.5 |
| 20260503002502 | 81 | 0 | 0.0 | 0.0 | 0.00 | 0.00 | 0.00 | 38 | 1018.4 |
| 20260503001502 | 81 | 115 | 0.0 | 0.9 | 0.00 | 0.00 | 0.00 | 38 | 1018.5 |
| 20260503001001 | 80 | 115 | 0.0 | 0.9 | 0.00 | 0.00 | 0.00 | 40 | 1018.5 |
| 20260503000002 | 80 | 0 | 0.0 | 0.0 | 0.00 | 0.00 | 0.00 | 42 | 1018.5 |
| 20260502235502 | 80 | 115 | 0.0 | 0.9 | 0.00 | 0.00 | 0.00 | 40 | 1018.5 |
| 20260502235002 | 79 | 115 | 0.0 | 0.9 | 0.00 | 0.00 | 0.00 | 42 | 1018.6 |
| 20260502234502 | 79 | 116 | 0.0 | 0.9 | 0.00 | 0.00 | 0.00 | 42 | 1018.6 |
| 20260502234002 | 79 | 117 | 0.0 | 0.9 | 0.00 | 0.00 | 0.00 | 40 | 1018.7 |
| 20260502233502 | 79 | 117 | 0.0 | 0.9 | 0.00 | 0.00 | 0.00 | 42 | 1018.7 |
| 20260502233002 | 79 | 0 | 0.0 | 0.0 | 0.00 | 0.00 | 0.00 | 41 | 1018.6 |
| 20260502232502 | 79 | 0 | 0.0 | 0.0 | 0.00 | 0.00 | 0.00 | 42 | 1018.7 |
| 20260502232002 | 78 | 118 | 0.0 | 0.9 | 0.00 | 0.00 | 0.00 | 42 | 1018.7 |
| 20260502231502 | 78 | 117 | 0.0 | 0.9 | 0.00 | 0.00 | 0.00 | 44 | 1018.7 |
| 20260502231002 | 78 | 110 | 0.0 | 0.9 | 0.00 | 0.00 | 0.00 | 44 | 1018.8 |
| 20260502230002 | 78 | 125 | 0.0 | 2.6 | 0.00 | 0.00 | 0.00 | 44 | 1018.8 |
| 20260502225001 | 76 | 110 | 0.0 | 0.9 | 0.00 | 0.00 | 0.00 | 44 | 1018.8 |
| 20260502224502 | 76 | 0 | 0.0 | 0.0 | 0.00 | 0.00 | 0.00 | 44 | 1018.8 |
| 20260502224002 | 76 | 110 | 0.0 | 0.9 | 0.00 | 0.00 | 0.00 | 44 | 1018.9 |
| 20260502223501 | 78 | 125 | 0.0 | 1.7 | 0.00 | 0.00 | 0.00 | 43 | 1018.9 |
| 20260502223001 | 78 | 129 | 0.0 | 1.7 | 0.00 | 0.00 | 0.00 | 44 | 1018.8 |
| 20260502222502 | 79 | 128 | 0.0 | 1.7 | 0.00 | 0.00 | 0.00 | 43 | 1018.9 |
| 20260502222002 | 80 | 121 | 0.0 | 0.9 | 0.00 | 0.00 | 0.00 | 44 | 1019.0 |
| 20260502221502 | 80 | 81 | 0.0 | 1.7 | 0.00 | 0.00 | 0.00 | 43 | 1018.9 |
| 20260502221002 | 80 | 95 | 0.0 | 1.7 | 0.00 | 0.00 | 0.00 | 41 | 1019.0 |
| 20260502220502 | 80 | 105 | 0.0 | 2.6 | 0.00 | 0.00 | 0.00 | 43 | 1019.0 |
| 20260502220002 | 80 | 105 | 0.0 | 2.6 | 0.00 | 0.00 | 0.00 | 44 | 1019.0 |
| 20260502215002 | 80 | 126 | 0.0 | 1.7 | 0.00 | 0.00 | 0.00 | 40 | 1019.1 |
| 20260502214502 | 80 | 133 | 0.0 | 2.6 | 0.00 | 0.00 | 0.00 | 42 | 1019.2 |
| 20260502214002 | 80 | 129 | 0.0 | 2.6 | 0.00 | 0.00 | 0.00 | 41 | 1019.2 |
| 20260502213502 | 80 | 109 | 0.0 | 1.7 | 0.00 | 0.00 | 0.00 | 41 | 1019.4 |
| 20260502213002 | 80 | 70 | 0.0 | 0.9 | 0.00 | 0.00 | 0.00 | 44 | 1019.4 |
| 20260502212502 | 80 | 95 | 0.0 | 2.6 | 0.00 | 0.00 | 0.00 | 44 | 1019.5 |
| 20260502212002 | 80 | 101 | 0.0 | 2.6 | 0.00 | 0.00 | 0.00 | 43 | 1019.5 |
| 20260502211002 | 79 | 130 | 0.0 | 3.5 | 0.00 | 0.00 | 0.00 | 40 | 1019.6 |
| 20260502210502 | 79 | 126 | 0.9 | 3.5 | 0.00 | 0.00 | 0.00 | 42 | 1019.8 |
| 20260502205502 | 79 | 117 | 0.0 | 2.6 | 0.00 | 0.00 | 0.00 | 41 | 1020.0 |
| 20260502205003 | 80 | 114 | 0.0 | 2.6 | 0.00 | 0.00 | 0.00 | 41 | 1020.0 |
| 20260502204502 | 80 | 92 | 0.0 | 0.9 | 0.00 | 0.00 | 0.00 | 41 | 1020.0 |
| 20260502204002 | 80 | 151 | 0.0 | 1.7 | 0.00 | 0.00 | 0.00 | 41 | 1020.0 |
| 20260502203502 | 79 | 153 | 0.0 | 1.7 | 0.00 | 0.00 | 0.00 | 41 | 1020.1 |
| 20260502203002 | 79 | 158 | 0.0 | 3.5 | 0.00 | 0.00 | 0.00 | 41 | 1020.2 |
| 20260502202502 | 79 | 124 | 0.0 | 3.5 | 0.00 | 0.00 | 0.00 | 41 | 1020.2 |
| 20260502201503 | 78 | 124 | 0.9 | 3.5 | 0.00 | 0.00 | 0.00 | 43 | 1020.4 |
| 20260502201003 | 78 | 126 | 0.9 | 3.5 | 0.00 | 0.00 | 0.00 | 41 | 1020.4 |
| 20260502200502 | 78 | 117 | 0.0 | 2.6 | 0.00 | 0.00 | 0.00 | 42 | 1020.5 |
| 20260502200003 | 78 | 94 | 0.0 | 0.9 | 0.00 | 0.00 | 0.00 | 42 | 1020.4 |
| 20260502195503 | 78 | 113 | 0.0 | 1.7 | 0.00 | 0.00 | 0.00 | 40 | 1020.5 |
| 20260502195002 | 78 | 106 | 0.0 | 1.7 | 0.00 | 0.00 | 0.00 | 42 | 1020.5 |
| 20260502194002 | 78 | 74 | 0.0 | 2.6 | 0.00 | 0.00 | 0.00 | 42 | 1020.6 |
| 20260502193503 | 78 | 82 | 0.0 | 2.6 | 0.00 | 0.00 | 0.00 | 43 | 1020.7 |
| 20260502193003 | 78 | 75 | 0.0 | 3.5 | 0.00 | 0.00 | 0.00 | 41 | 1020.7 |
| 20260502192503 | 78 | 57 | 0.0 | 3.5 | 0.00 | 0.00 | 0.00 | 42 | 1020.7 |
| 20260502192002 | 78 | 115 | 0.9 | 3.5 | 0.00 | 0.00 | 0.00 | 43 | 1020.8 |
| 20260502191502 | 77 | 115 | 0.9 | 3.5 | 0.00 | 0.00 | 0.00 | 41 | 1020.9 |
| 20260502191002 | 78 | 114 | 0.9 | 3.5 | 0.00 | 0.00 | 0.00 | 41 | 1020.9 |
| 20260502190002 | 78 | 114 | 0.9 | 2.6 | 0.00 | 0.00 | 0.00 | 41 | 1020.9 |
| 20260502185002 | 78 | 116 | 0.9 | 2.6 | 0.00 | 0.00 | 0.00 | 42 | 1021.0 |
| 20260502184502 | 78 | 122 | 0.9 | 2.6 | 0.00 | 0.00 | 0.00 | 42 | 1021.1 |
| 20260502184003 | 77 | 117 | 0.0 | 2.6 | 0.00 | 0.00 | 0.00 | 44 | 1021.2 |
| 20260502183502 | 77 | 118 | 0.0 | 3.5 | 0.00 | 0.00 | 0.00 | 42 | 1021.3 |
| 20260502182503 | 77 | 117 | 0.9 | 2.6 | 0.00 | 0.00 | 0.00 | 43 | 1021.3 |
| 20260502182003 | 77 | 123 | 0.9 | 2.6 | 0.00 | 0.00 | 0.00 | 42 | 1021.3 |
| 20260502181503 | 77 | 117 | 0.0 | 1.7 | 0.00 | 0.00 | 0.00 | 43 | 1021.4 |
| 20260502181003 | 78 | 108 | 0.0 | 1.7 | 0.00 | 0.00 | 0.00 | 41 | 1021.5 |
| 20260502170502 | 74 | 79 | 0.0 | 2.6 | 0.00 | 0.00 | 0.00 | 45 | 1022.1 |
| 20260502164003 | 73 | 128 | 0.9 | 3.5 | 0.00 | 0.00 | 0.00 | 49 | 1022.2 |
| 20260502163502 | 73 | 194 | 0.0 | 3.5 | 0.00 | 0.00 | 0.00 | 51 | 1022.1 |
| 20260502163003 | 74 | 268 | 0.0 | 2.6 | 0.00 | 0.00 | 0.00 | 47 | 1022.1 |
| 20260502162003 | 73 | 287 | 0.0 | 1.7 | 0.00 | 0.00 | 0.00 | 51 | 1022.2 |
| 20260502161503 | 72 | 338 | 0.0 | 0.9 | 0.00 | 0.00 | 0.00 | 52 | 1022.2 |
| 20260502161003 | 72 | 297 | 0.0 | 2.6 | 0.00 | 0.00 | 0.00 | 51 | 1022.2 |
| 20260502160502 | 72 | 325 | 0.9 | 2.6 | 0.00 | 0.00 | 0.00 | 51 | 1022.1 |
| 20260502152002 | 69 | 179 | 0.0 | 0.9 | 0.00 | 0.00 | 0.00 | 58 | 1022.0 |
| 20260502151503 | 68 | 280 | 0.0 | 0.9 | 0.00 | 0.00 | 0.00 | 59 | 1022.1 |
| 20260502151002 | 67 | 296 | 0.0 | 0.9 | 0.00 | 0.00 | 0.00 | 58 | 1022.0 |
| 20260502150502 | 67 | 293 | 0.0 | 0.9 | 0.00 | 0.00 | 0.00 | 60 | 1021.9 |
| 20260502130503 | 53 | 274 | 0.0 | 1.7 | 0.00 | 0.00 | 0.00 | 93 | 1021.3 |
| 20260502123502 | 50 | 288 | 0.0 | 0.9 | 0.00 | 0.00 | 0.00 | 95 | 1020.6 |
| 20260502123003 | 50 | 0 | 0.0 | 0.0 | 0.00 | 0.00 | 0.00 | 94 | 1020.5 |
| 20260502122503 | 50 | 0 | 0.0 | 0.0 | 0.00 | 0.00 | 0.00 | 94 | 1020.4 |
| 20260502122003 | 49 | 0 | 0.0 | 0.0 | 0.00 | 0.00 | 0.00 | 93 | 1020.4 |
| 20260502121002 | 49 | 0 | 0.0 | 0.0 | 0.00 | 0.00 | 0.00 | 92 | 1020.2 |
| 20260502120503 | 49 | 0 | 0.0 | 0.0 | 0.00 | 0.00 | 0.00 | 92 | 1020.1 |
| 20260502115503 | 50 | 0 | 0.0 | 0.0 | 0.00 | 0.00 | 0.00 | 92 | 1020.1 |
| 20260502115003 | 50 | 0 | 0.0 | 0.0 | 0.00 | 0.00 | 0.00 | 92 | 1019.9 |
| 20260502113503 | 50 | 0 | 0.0 | 0.0 | 0.00 | 0.00 | 0.00 | 92 | 1019.7 |
| 20260502113002 | 50 | 0 | 0.0 | 0.0 | 0.00 | 0.00 | 0.00 | 92 | 1019.6 |
| 20260502112503 | 50 | 0 | 0.0 | 0.0 | 0.00 | 0.00 | 0.00 | 91 | 1019.5 |
| 20260502112003 | 50 | 0 | 0.0 | 0.0 | 0.00 | 0.00 | 0.00 | 91 | 1019.4 |
| 20260502111503 | 50 | 0 | 0.0 | 0.0 | 0.00 | 0.00 | 0.00 | 91 | 1019.3 |
| 20260502111002 | 51 | 0 | 0.0 | 0.0 | 0.00 | 0.00 | 0.00 | 91 | 1019.2 |
| 20260502110502 | 51 | 288 | 0.0 | 0.9 | 0.00 | 0.00 | 0.00 | 91 | 1019.1 |
| 20260502110003 | 51 | 288 | 0.0 | 0.9 | 0.00 | 0.00 | 0.00 | 91 | 1019.4 |
| 20260502105503 | 51 | 286 | 0.0 | 2.6 | 0.00 | 0.00 | 0.00 | 91 | 1019.4 |
| 20260502104503 | 51 | 288 | 0.0 | 1.7 | 0.00 | 0.00 | 0.00 | 92 | 1019.2 |
| 20260502103503 | 51 | 295 | 0.0 | 0.9 | 0.00 | 0.00 | 0.00 | 92 | 1019.1 |
| 20260502103003 | 51 | 292 | 0.0 | 1.7 | 0.00 | 0.00 | 0.00 | 93 | 1019.1 |
| 20260502102503 | 50 | 290 | 0.0 | 1.7 | 0.00 | 0.00 | 0.00 | 93 | 1019.1 |
| 20260502102003 | 50 | 0 | 0.0 | 0.0 | 0.00 | 0.00 | 0.00 | 93 | 1019.0 |
| 20260502101503 | 50 | 0 | 0.0 | 0.0 | 0.00 | 0.00 | 0.00 | 92 | 1019.0 |
| 20260502101004 | 50 | 0 | 0.0 | 0.0 | 0.00 | 0.00 | 0.00 | 92 | 1018.9 |
| 20260502100502 | 50 | 0 | 0.0 | 0.0 | 0.00 | 0.00 | 0.00 | 92 | 1018.9 |
| 20260502091504 | 51 | 310 | 0.0 | 0.9 | 0.00 | 0.00 | 0.00 | 90 | 1019.0 |
| 20260502091003 | 51 | 310 | 0.0 | 0.9 | 0.00 | 0.00 | 0.00 | 90 | 1018.9 |
| 20260502090502 | 52 | 0 | 0.0 | 0.0 | 0.00 | 0.00 | 0.00 | 90 | 1018.8 |
| 20260502071503 | 52 | 0 | 0.0 | 0.0 | 0.00 | 0.00 | 0.00 | 91 | 1018.9 |
| 20260502071004 | 52 | 321 | 0.0 | 0.9 | 0.00 | 0.00 | 0.00 | 91 | 1019.0 |
| 20260502070504 | 52 | 321 | 0.0 | 0.9 | 0.00 | 0.00 | 0.00 | 92 | 1019.0 |
| 20260502070003 | 52 | 0 | 0.0 | 0.0 | 0.00 | 0.00 | 0.00 | 91 | 1019.2 |
| 20260502065003 | 52 | 0 | 0.0 | 0.0 | 0.00 | 0.00 | 0.00 | 91 | 1019.3 |
| 20260502064503 | 52 | 0 | 0.0 | 0.0 | 0.00 | 0.00 | 0.00 | 90 | 1019.2 |
| 20260502064003 | 52 | 0 | 0.0 | 0.0 | 0.00 | 0.00 | 0.00 | 90 | 1019.2 |
| 20260502063503 | 53 | 0 | 0.0 | 0.0 | 0.00 | 0.00 | 0.00 | 91 | 1019.3 |
| 20260502063003 | 53 | 86 | 0.0 | 0.9 | 0.00 | 0.00 | 0.00 | 91 | 1019.3 |
| 20260502062503 | 52 | 86 | 0.0 | 0.9 | 0.00 | 0.00 | 0.00 | 92 | 1019.2 |
| 20260502062003 | 52 | 0 | 0.0 | 0.0 | 0.00 | 0.00 | 0.00 | 92 | 1019.3 |
| 20260502061003 | 52 | 0 | 0.0 | 0.0 | 0.00 | 0.00 | 0.00 | 91 | 1019.2 |
| 20260502060503 | 52 | 0 | 0.0 | 0.0 | 0.00 | 0.00 | 0.00 | 91 | 1019.1 |
| 20260502060004 | 52 | 0 | 0.0 | 0.0 | 0.00 | 0.00 | 0.00 | 90 | 1019.0 |
| 20260502055003 | 52 | 0 | 0.0 | 0.0 | 0.00 | 0.00 | 0.00 | 91 | 1019.1 |
| 20260502054503 | 52 | 0 | 0.0 | 0.0 | 0.00 | 0.00 | 0.00 | 91 | 1019.1 |
| 20260502054003 | 52 | 0 | 0.0 | 0.0 | 0.00 | 0.00 | 0.00 | 90 | 1019.2 |
| 20260502053504 | 52 | 0 | 0.0 | 0.0 | 0.00 | 0.00 | 0.00 | 90 | 1019.2 |
| 20260502053004 | 52 | 0 | 0.0 | 0.0 | 0.00 | 0.00 | 0.00 | 89 | 1019.2 |
| 20260502052003 | 53 | 0 | 0.0 | 0.0 | 0.00 | 0.00 | 0.00 | 89 | 1019.3 |
| 20260502051503 | 53 | 0 | 0.0 | 0.0 | 0.00 | 0.00 | 0.00 | 89 | 1019.3 |
| 20260502051004 | 53 | 0 | 0.0 | 0.0 | 0.00 | 0.00 | 0.00 | 89 | 1019.2 |
| 20260502050504 | 53 | 0 | 0.0 | 0.0 | 0.00 | 0.00 | 0.00 | 89 | 1019.3 |
| 20260502045502 | 53 | 0 | 0.0 | 0.0 | 0.00 | 0.00 | 0.00 | 88 | 1019.1 |
| 20260502045002 | 53 | 0 | 0.0 | 0.0 | 0.00 | 0.00 | 0.00 | 87 | 1019.0 |
| 20260502044502 | 54 | 0 | 0.0 | 0.0 | 0.00 | 0.00 | 0.00 | 87 | 1018.9 |
| 20260502044001 | 54 | 0 | 0.0 | 0.0 | 0.00 | 0.00 | 0.00 | 87 | 1019.1 |
| 20260502043501 | 54 | 0 | 0.0 | 0.0 | 0.00 | 0.00 | 0.00 | 87 | 1019.0 |
| 20260502043002 | 54 | 0 | 0.0 | 0.0 | 0.00 | 0.00 | 0.00 | 87 | 1019.0 |
| 20260502042502 | 54 | 0 | 0.0 | 0.0 | 0.00 | 0.00 | 0.00 | 87 | 1018.9 |
| 20260502042002 | 54 | 0 | 0.0 | 0.0 | 0.00 | 0.00 | 0.00 | 86 | 1019.0 |
| 20260502041501 | 55 | 0 | 0.0 | 0.0 | 0.00 | 0.00 | 0.00 | 86 | 1018.8 |
| 20260502041002 | 55 | 0 | 0.0 | 0.0 | 0.00 | 0.00 | 0.00 | 86 | 1018.8 |
| 20260502040502 | 55 | 0 | 0.0 | 0.0 | 0.00 | 0.00 | 0.00 | 85 | 1018.9 |
| 20260502040002 | 55 | 0 | 0.0 | 0.0 | 0.00 | 0.00 | 0.00 | 83 | 1019.0 |
| 20260502035002 | 56 | 0 | 0.0 | 0.0 | 0.00 | 0.00 | 0.00 | 84 | 1019.2 |
| 20260502034501 | 56 | 0 | 0.0 | 0.0 | 0.00 | 0.00 | 0.00 | 83 | 1019.1 |
| 20260502034001 | 56 | 0 | 0.0 | 0.0 | 0.00 | 0.00 | 0.00 | 83 | 1019.1 |
| 20260502033502 | 56 | 0 | 0.0 | 0.0 | 0.00 | 0.00 | 0.00 | 82 | 1019.0 |
| 20260502032502 | 57 | 0 | 0.0 | 0.0 | 0.00 | 0.00 | 0.00 | 82 | 1018.7 |
| 20260502032001 | 57 | 0 | 0.0 | 0.0 | 0.00 | 0.00 | 0.00 | 83 | 1018.6 |
| 20260502031502 | 57 | 0 | 0.0 | 0.0 | 0.00 | 0.00 | 0.00 | 83 | 1018.6 |
| 20260502031002 | 57 | 0 | 0.0 | 0.0 | 0.00 | 0.00 | 0.00 | 83 | 1018.7 |
| 20260502030502 | 58 | 0 | 0.0 | 0.0 | 0.00 | 0.00 | 0.00 | 83 | 1018.7 |
| 20260502030002 | 58 | 0 | 0.0 | 0.0 | 0.00 | 0.00 | 0.00 | 83 | 1018.6 |
| 20260502025501 | 58 | 0 | 0.0 | 0.0 | 0.00 | 0.00 | 0.00 | 83 | 1018.6 |
| 20260502025001 | 58 | 0 | 0.0 | 0.0 | 0.00 | 0.00 | 0.00 | 83 | 1018.5 |
| 20260502024502 | 58 | 0 | 0.0 | 0.0 | 0.00 | 0.00 | 0.00 | 83 | 1018.4 |
| 20260502024001 | 58 | 0 | 0.0 | 0.0 | 0.00 | 0.00 | 0.00 | 83 | 1018.4 |
| 20260502023501 | 58 | 0 | 0.0 | 0.0 | 0.00 | 0.00 | 0.00 | 83 | 1018.4 |
| 20260502023001 | 58 | 0 | 0.0 | 0.0 | 0.00 | 0.00 | 0.00 | 84 | 1018.4 |
| 20260502022501 | 58 | 0 | 0.0 | 0.0 | 0.00 | 0.00 | 0.00 | 83 | 1018.4 |
| 20260502022002 | 58 | 0 | 0.0 | 0.0 | 0.00 | 0.00 | 0.00 | 82 | 1018.3 |
| 20260502021502 | 58 | 0 | 0.0 | 0.0 | 0.00 | 0.00 | 0.00 | 83 | 1018.2 |
| 20260502021002 | 58 | 0 | 0.0 | 0.0 | 0.00 | 0.00 | 0.00 | 82 | 1018.0 |
| 20260502020501 | 58 | 0 | 0.0 | 0.0 | 0.00 | 0.00 | 0.00 | 82 | 1018.0 |
| 20260502020001 | 58 | 0 | 0.0 | 0.0 | 0.00 | 0.00 | 0.00 | 82 | 1017.9 |
| 20260502015501 | 58 | 0 | 0.0 | 0.0 | 0.00 | 0.00 | 0.00 | 82 | 1017.7 |
| 20260502015002 | 58 | 86 | 0.0 | 0.9 | 0.00 | 0.00 | 0.00 | 82 | 1017.6 |
| 20260502013502 | 58 | 86 | 0.0 | 0.9 | 0.00 | 0.00 | 0.00 | 82 | 1017.3 |
| 20260502013002 | 58 | 86 | 0.0 | 0.9 | 0.00 | 0.00 | 0.00 | 82 | 1017.1 |
| 20260502012502 | 58 | 86 | 0.0 | 0.9 | 0.00 | 0.00 | 0.00 | 81 | 1017.0 |
| 20260502011502 | 58 | 86 | 0.0 | 0.9 | 0.00 | 0.00 | 0.00 | 81 | 1017.0 |
| 20260502011001 | 59 | 86 | 0.0 | 0.9 | 0.00 | 0.00 | 0.00 | 81 | 1016.8 |
| 20260502010501 | 59 | 86 | 0.0 | 0.9 | 0.00 | 0.00 | 0.00 | 81 | 1016.8 |